sat.trackr.live / text

‹ back to catalog

STARLINK-32437

NORAD 63001 · 2025-031W

PAYLOAD ACTIVE UNKNOWN

§ Identity

Operator
Country
US
Launch date
2025-02-11
Launch site
AFETR
Launch vehicle
Mass (kg)
RCS (m²)

Purposes: comms

External: N2YO · Heavens-Above · Gunter

§ Orbital elements

Epoch: 2026-05-25T02:00:27.082656Z

Period
94.27 min
Inclination
42.9985°
Eccentricity
0.0000787
Mean motion
15.27589926 rev/d
Perigee alt
482.5 km
Apogee alt
483.6 km
Semi-major
6,861.2 km
B*
5.4837e-4
RAAN
72.3406°
Arg perigee
257.0401°
Mean anomaly
103.0363°
Rev number
7,277

§ Raw data

STARLINK-324371 63001U 25031W   26145.08364679  .00014863  00000+0  54837-3 0  99932 63001  42.9985  72.3406 0000787 257.0401 103.0363 15.27589926 72775

JSON: /api/v1/satellites/63001 · /tle

For live sub-satellite position, see the globe view (requires WebGL).

§ Visibility from observer

Set your observer location to see the next 7 days of passes ≥ 10°. The values pass through the URL so the page stays shareable.

No JS? Fill the form by hand. The geolocation button needs JavaScript.